Location: Champignolles
(47.0543°N, 4.5663°E)
Time: 07:05:15
(UTC+00:00)

Cosmos 923 Rocket - Pass Details

Date: 13 April 2021
Orbit: 759 x 785 km, 74.0° (Epoch: 13 May)

Event Time Altitude Azimuth Distance (km) Brightness Sun altitude
Rises 04:10:25 0° 327° (NNW) 3,229 7.1 -8.4°
Reaches altitude 10° 04:13:09 10° 314° (NW) 2,299 6.3 -8.0°
Maximum altitude 04:17:18 24° 261° (W) 1,524 5.0 -7.3°
Drops below altitude 10° 04:21:26 10° 208° (SSW) 2,294 6.0 -6.7°
Sets 04:24:10 0° 195° (SSW) 3,219 6.9 -6.3°
